Powrót do katalogu

IUS R/B(1)

AktywnyHEO
NORAD 23614·ROCKET BODY·🇺🇸 United States

Wystrzelony Jul 13, 1995 z Cape Canaveral Space Force Station

Loading…

Następne Przeloty (najbliższe 24 godziny)

TLE

ŚwieżeSource: Space-Track

Epoka: Sep 14, 2026, 08:27 UTC

1 23614U 95035C   26257.35255721  .00001079  00000-0  97074-3 0  9997
2 23614  26.3305  21.1462 6979678 224.0227  52.5986  2.63552689280083

Śledź IUS R/B(1) w czasie rzeczywistym z AllMySat

Download on the App Store